Durant, OK

2:00 AM CST on December 09, 2019 (GMT -0600)
Eaker

Weather History for KDUA - October, 2019

Change the Weather History Date:

Wednesday, October 16, 2019

  Actual Average (WUND) Record (WUND)
Temperature  
Mean Temperature 59 °F -  
Max Temperature 68 °F - - (-1)
Min Temperature 50 °F - - (-1)
Degree Days  
Heating Degree Days 6    
Growing Degree Days 9 (Base 50)    
Moisture  
Dew Point 40 °F    
Average Humidity 52    
Maximum Humidity 87    
Minimum Humidity 30    
Precipitation  
Precipitation 0.00 in - - ()
Sea Level Pressure  
Sea Level Pressure 30.16 in    
Wind  
Wind Speed 11 mph (North)    
Max Wind Speed 18 mph    
Max Gust Speed 26 mph    
Visibility 10 miles    
Events      
Averages and records for this station are not official NWS values.
T = Trace of Precipitation, MM = Missing Value Source: NWS Daily Summary

Daily Weather History Graph

Daily Weather History Graph

Search for Another Location

Airport or City:

Astronomy

Oct. 16, 2019 Rise Set
Actual Time 7:31 AM CDT 6:50 PM CDT
Civil Twilight 7:06 AM CDT 7:15 PM CDT
Nautical Twilight 6:36 AM CDT 7:44 PM CDT
Astronomical Twilight 6:08 AM CDT 8:13 PM CDT
Moon 8:50 PM CDT (10/16) 9:57 AM CDT (10/16)
Length of Visible Light 12h 09m
Length of Day
11h 19m
Waning Gibbous, 92% of the Moon is Illuminated
Oct 16
Waning Gibbous
Oct 21
Last Quarter
Oct 27
New
Nov 4
First Quarter
Nov 12
Full

Hourly Weather History & Observations

Time (CDT) Temp. Dew Point Humidity Pressure Visibility Wind Dir Wind Speed Gust Speed Precip Events Conditions
12:15 AM 62.6 °F 46.4 °F 55% 30.08 in 10.0 mi NNE 17.3 mph 25.3 mph N/A   Scattered Clouds
12:55 AM 62.6 °F 46.4 °F 55% 30.09 in 10.0 mi NNE 4.6 mph 23.0 mph N/A   Scattered Clouds
1:15 AM 62.6 °F 46.4 °F 55% 30.09 in 10.0 mi North 13.8 mph 20.7 mph N/A   Clear
1:35 AM 60.8 °F 46.4 °F 59% 30.10 in 10.0 mi North 16.1 mph 20.7 mph N/A   Clear
2:15 AM 60.8 °F 42.8 °F 52% 30.11 in 10.0 mi North 17.3 mph 21.9 mph N/A   Clear
2:35 AM 59.0 °F 41.0 °F 51% 30.11 in 10.0 mi North 15.0 mph 20.7 mph N/A   Clear
2:55 AM 57.2 °F 41.0 °F 55% 30.12 in 10.0 mi North 11.5 mph - N/A   Clear
3:18 AM 57.2 °F 39.2 °F 51% 30.12 in 10.0 mi North 11.5 mph - N/A   Clear
3:37 AM 57.2 °F 39.2 °F 51% 30.13 in 10.0 mi North 10.4 mph 16.1 mph N/A   Clear
4:36 AM 55.4 °F 37.4 °F 51% 30.12 in 10.0 mi NNE 10.4 mph - N/A   Clear
4:57 AM 53.6 °F 37.4 °F 54% 30.12 in 10.0 mi North 12.7 mph 19.6 mph N/A   Clear
5:15 AM 53.6 °F 37.4 °F 54% 30.13 in 10.0 mi North 9.2 mph 17.3 mph N/A   Clear
5:35 AM 53.6 °F 37.4 °F 54% 30.14 in 10.0 mi North 9.2 mph - N/A   Clear
5:55 AM 53.6 °F 37.4 °F 54% 30.15 in 10.0 mi NNW 11.5 mph - N/A   Clear
6:17 AM 51.8 °F 37.4 °F 58% 30.15 in 10.0 mi North 9.2 mph - N/A   Clear
6:37 AM 51.8 °F 37.4 °F 58% 30.15 in 10.0 mi NNW 9.2 mph - N/A   Clear
6:55 AM 51.8 °F 37.4 °F 58% 30.16 in 10.0 mi North 11.5 mph 16.1 mph N/A   Clear
7:15 AM 51.8 °F 37.4 °F 58% 30.17 in 10.0 mi NW 16.1 mph 19.6 mph N/A   Clear
7:57 AM 50.0 °F 37.4 °F 62% 30.18 in 10.0 mi North 12.7 mph 19.6 mph N/A   Clear
8:18 AM 50.0 °F 37.4 °F 62% 30.19 in 10.0 mi North 17.3 mph 25.3 mph N/A   Clear
8:35 AM 51.8 °F 37.4 °F 58% 30.19 in 10.0 mi North 17.3 mph 21.9 mph N/A   Clear
8:58 AM 51.8 °F 37.4 °F 58% 30.20 in 10.0 mi North 17.3 mph 25.3 mph N/A   Clear
9:17 AM 53.6 °F 37.4 °F 54% 30.21 in 10.0 mi NNE 16.1 mph 21.9 mph N/A   Clear
9:36 AM 53.6 °F 37.4 °F 54% 30.22 in 10.0 mi North 17.3 mph 26.5 mph N/A   Clear
10:16 AM 55.4 °F 35.6 °F 47% 30.23 in 10.0 mi NNE 18.4 mph 21.9 mph N/A   Clear
11:16 AM 59.0 °F 35.6 °F 42% 30.24 in 10.0 mi North 16.1 mph 24.2 mph N/A   Clear
11:36 AM 60.8 °F 37.4 °F 42% 30.24 in 10.0 mi North 12.7 mph 18.4 mph N/A   Clear
11:55 AM 60.8 °F 37.4 °F 42% 30.23 in 10.0 mi NNW 13.8 mph 19.6 mph N/A   Clear
12:18 PM 62.6 °F 37.4 °F 39% 30.22 in 10.0 mi North 11.5 mph - N/A   Clear
12:56 PM 62.6 °F 37.4 °F 39% 30.21 in 10.0 mi North 9.2 mph - N/A   Clear
1:18 PM 62.6 °F 37.4 °F 39% 30.20 in 10.0 mi North 9.2 mph - N/A   Clear
1:37 PM 64.4 °F 35.6 °F 34% 30.20 in 10.0 mi NNE 11.5 mph - N/A   Clear
1:56 PM 64.4 °F 37.4 °F 37% 30.19 in 10.0 mi NNW 9.2 mph - N/A   Clear
2:16 PM 66.2 °F 37.4 °F 35% 30.20 in 10.0 mi North 6.9 mph - N/A   Clear
2:36 PM 68.0 °F 37.4 °F 33% 30.19 in 10.0 mi NNW 8.1 mph - N/A   Clear
3:18 PM 66.2 °F 35.6 °F 32% 30.19 in 10.0 mi North 5.8 mph - N/A   Clear
3:36 PM 66.2 °F 37.4 °F 35% 30.18 in 10.0 mi NNW 6.9 mph - N/A   Clear
4:16 PM 68.0 °F 35.6 °F 30% 30.17 in 10.0 mi ENE 5.8 mph - N/A   Clear
4:36 PM 68.0 °F 35.6 °F 30% 30.16 in 10.0 mi Calm Calm - N/A   Clear
4:56 PM 68.0 °F 37.4 °F 33% 30.16 in 10.0 mi NE 3.5 mph - N/A   Clear
5:16 PM 66.2 °F 37.4 °F 35% 30.16 in 10.0 mi NNE 4.6 mph - N/A   Clear
5:36 PM 64.4 °F 39.2 °F 40% 30.15 in 10.0 mi Calm Calm - N/A   Clear
5:57 PM 64.4 °F 41.0 °F 42% 30.14 in 10.0 mi Calm Calm - N/A   Clear
7:16 PM 60.8 °F 42.8 °F 52% 30.13 in 10.0 mi Calm Calm - N/A   Clear
7:38 PM 59.0 °F 42.8 °F 55% 30.12 in 10.0 mi Calm Calm - N/A   Clear
8:16 PM 55.4 °F 44.6 °F 67% 30.12 in 10.0 mi Calm Calm - N/A   Clear
8:38 PM 53.6 °F 44.6 °F 72% 30.13 in 10.0 mi Calm Calm - N/A   Clear
8:56 PM 53.6 °F 44.6 °F 72% 30.12 in 10.0 mi Calm Calm - N/A   Clear
9:16 PM 51.8 °F 44.6 °F 76% 30.13 in 10.0 mi Calm Calm - N/A   Clear
9:36 PM 50.0 °F 44.6 °F 82% 30.12 in 10.0 mi Calm Calm - N/A   Clear
10:16 PM 50.0 °F 44.6 °F 82% 30.12 in 10.0 mi Calm Calm - N/A   Clear
11:36 PM 50.0 °F 46.4 °F 87% 30.11 in 10.0 mi Calm Calm - N/A   Clear
11:56 PM 50.0 °F 44.6 °F 82% 30.12 in 10.0 mi Calm Calm - N/A   Clear